This is the latest recevied weather packets stored in our database for station/object W0JRT-6. If no packets are shown the sender has not sent any weather packets the latest 10 day(s).
| Time | Temp. | Humidity | Pressure | Rain* | Wind** | Luminosity | Snow |
|---|---|---|---|---|---|---|---|
| 1777822198 | 20° C | 46% | 1008 hPa | 0 mm | - | - | - |
| 1777821598 | 20° C | 47% | 1008.1 hPa | 0 mm | - | - | - |
| 1777821008 | 19.44° C | 48% | 1008.5 hPa | 0 mm | - | - | - |
| 1777820398 | 18.89° C | 51% | 1008.4 hPa | 0 mm | - | - | - |
| 1777819809 | 17.78° C | 51% | 1008.4 hPa | 0 mm | - | - | - |
| 1777819202 | 17.78° C | 51% | 1008.6 hPa | 0 mm | - | - | - |
| 1777818699 | 17.78° C | 52% | 1008.8 hPa | 0 mm | - | - | - |
| 1777818602 | 17.78° C | 52% | 1008.8 hPa | 0 mm | - | - | - |
| 1777817404 | 16.67° C | 51% | 1009.4 hPa | 0 mm | - | - | - |
| 1777816207 | 15.56° C | 53% | 1009.9 hPa | 0 mm | - | - | - |
| 1777814403 | 14.44° C | 57% | 1010.8 hPa | 0 mm | - | - | - |
| 1777813800 | 13.89° C | 56% | 1011.1 hPa | 0 mm | - | - | - |
| 1777813203 | 13.33° C | 58% | 1011.5 hPa | 0 mm | - | - | - |
| 1777812599 | 12.78° C | 58% | 1011.6 hPa | 0 mm | - | - | - |
| 1777811404 | 12.22° C | 58% | 1011.5 hPa | 0 mm | - | - | - |
| 1777810810 | 11.67° C | 58% | 1011.6 hPa | 0 mm | - | - | - |
| 1777810208 | 11.67° C | 59% | 1011.7 hPa | 0 mm | - | - | - |
| 1777808998 | 11.11° C | 57% | 1012.1 hPa | 0 mm | - | - | - |
| 1777807798 | 11.11° C | 55% | 1012.4 hPa | 0 mm | - | - | - |
| 1777807211 | 11.11° C | 56% | 1012.4 hPa | 0 mm | - | - | - |
| 1777806605 | 11.11° C | 54% | 1012.6 hPa | 0 mm | - | - | - |
| 1777805398 | 11.11° C | 56% | 1012.9 hPa | 0 mm | - | - | - |
| 1777804798 | 11.11° C | 55% | 1013 hPa | 0 mm | - | - | - |
| 1777803610 | 11.11° C | 56% | 1013.3 hPa | 0 mm | - | - | - |
| 1777803000 | 10.56° C | 57% | 1013.4 hPa | 0 mm | - | - | - |
* Rain since midnight (hover to see other rain measurements)
** Current wind speed in m/s (hover to see current wind gust speed)